Location: USNO
(38.9242°N, 77.0663°W)
Time: 10:57:21
(UTC-04:00)

Vanguard 1 Rocket - Visible Passes

Search period start: 23 October 2017 00:00
Search period end: 02 November 2017 00:00
Orbit: 655 x 4222 km, 34.3° (Epoch: 22 October)

Date Brightness Start Highest point End Pass type
(mag) Time Alt. Az. Time Alt. Az. Time Alt. Az.
23 Oct 11.1 03:23:35 10° SSE 03:26:46 11° SSE 03:29:36 10° SE visible
23 Oct 9.8 05:43:56 10° SSW 05:54:16 30° SSE 06:00:29 10° ESE visible
24 Oct 10.3 04:32:05 11° SSW 04:42:25 23° SSE 04:49:20 10° ESE visible
24 Oct 8.9 06:58:55 10° SW 07:08:59 45° SSE 07:14:40 10° E visible
25 Oct 10.8 03:25:55 15° SSE 03:30:07 17° SSE 03:36:59 10° ESE visible
25 Oct 9.5 05:45:40 10° SW 05:57:34 38° SSE 06:04:16 10° E visible
26 Oct 11.2 02:19:37 11° SE 02:19:37 11° SE 02:21:01 10° SE visible
26 Oct 10.1 04:36:59 18° SSW 04:45:43 31° SSE 04:53:28 10° E visible
26 Oct 8.7 07:01:28 10° WSW 07:12:17 53° S 07:18:10 10° E visible
27 Oct 10.6 03:30:33 23° SSE 03:33:22 24° SSE 03:41:55 10° ESE visible
27 Oct 9.3 05:47:54 10° SW 06:00:52 47° SSE 06:07:53 10° E visible
28 Oct 11.0 02:24:01 16° SE 02:24:01 16° SE 02:28:50 10° ESE visible
28 Oct 9.8 04:41:21 25° SSW 04:48:58 39° SSE 04:57:16 10° E visible
28 Oct 8.6 07:04:09 10° WSW 07:15:33 60° S 07:21:37 10° E visible
29 Oct 10.3 03:34:43 31° SSE 03:36:34 32° SSE 03:46:08 10° E visible
29 Oct 9.1 05:52:03 14° WSW 06:04:05 55° SSE 06:11:23 10° E visible
30 Oct 10.8 02:28:00 22° SE 02:28:00 22° SE 02:33:59 10° ESE visible
30 Oct 9.6 04:45:19 31° SSW 04:52:09 47° SSE 05:00:53 10° E visible
30 Oct 8.6 07:06:57 10° WSW 07:18:50 64° S 07:25:02 10° E visible
31 Oct 10.1 03:38:31 39° SSE 03:39:42 39° SSE 03:49:58 10° E visible
31 Oct 9.0 05:55:50 17° WSW 06:07:19 62° S 06:14:50 10° E visible
01 Nov 10.6 02:31:38 27° ESE 02:31:38 27° ESE 02:38:18 10° E visible
01 Nov 9.4 04:48:58 37° SW 04:55:19 55° SSE 05:04:24 10° E visible
01 Nov 8.6 07:09:48 10° W 07:22:05 66° S 07:28:26 10° ESE visible
